Moab, UT

7:48 PM MDT on April 27, 2017 (GMT -0600)
Canyonlands

Weather History for KCNY - November, 2014

Change the Weather History Date:

Sunday, November 16, 2014

  Actual Average Record
Temperature  
Mean Temperature 27 °F 38 °F  
Max Temperature 36 °F 50 °F 75 °F (1981)
Min Temperature 17 °F 27 °F 10 °F (1955)
Degree Days  
Heating Degree Days 38 27  
Month to date heating degree days 365 368  
Since 1 July heating degree days 611 787  
Cooling Degree Days 0 0  
Month to date cooling degree days 0 0  
Year to date cooling degree days 1447 1289  
Moisture  
Dew Point 4 °F    
Average Humidity 36    
Maximum Humidity 49    
Minimum Humidity 23    
Precipitation  
Precipitation 0.00 in 0.03 in 0.40 in (1930)
Month to date precipitation 0.03 0.37  
Year to date precipitation 7.12 7.88  
Sea Level Pressure  
Sea Level Pressure 30.30 in    
Wind  
Wind Speed 7 mph (NE)    
Max Wind Speed 21 mph    
Max Gust Speed 27 mph    
Visibility 10 miles    
Events      
T = Trace of Precipitation, MM = Missing Value Source: NWS Daily Summary

Daily Weather History Graph

Daily Weather History Graph

Search for Another Location

Airport or City:

Trip Planner

Search our weather history database for the weather conditions in past years. The results will help you decide how hot, cold, wet, or windy it might be!

Date:

Astronomy

Nov. 16, 2014 Rise Set
Actual Time 7:02 AM MST 5:04 PM MST
Civil Twilight 6:33 AM MST 5:33 PM MST
Nautical Twilight 6:01 AM MST 6:05 PM MST
Astronomical Twilight 5:30 AM MST 6:36 PM MST
Moon 1:15 AM MST (11/16) 1:56 PM MST (11/16)
Length of Visible Light 10h 59m
Length of Day
10h 02m
Waning Crescent, 30% of the Moon is Illuminated
Nov 16
Waning Crescent
Nov 22
New
Nov 29
First Quarter
Dec 6
Full
Dec 14
Last Quarter

Hourly Weather History & Observations

Time (MST) Temp. Windchill Dew Point Humidity Pressure Visibility Wind Dir Wind Speed Gust Speed Precip Events Conditions
12:53 AM 33.1 °F - 15.1 °F 48% 30.00 in 10.0 mi Calm Calm - N/A   Overcast
1:53 AM 30.0 °F 18.3 °F 14.0 °F 51% 30.02 in 10.0 mi ENE 17.3 mph 24.2 mph N/A   Overcast
2:53 AM 28.9 °F - 9.0 °F 43% 30.09 in 10.0 mi North - - N/A   Overcast
3:53 AM 27.0 °F 14.3 °F 8.1 °F 45% 30.13 in 10.0 mi NE 17.3 mph - N/A   Mostly Cloudy
4:53 AM 25.0 °F 10.9 °F 5.0 °F 43% 30.17 in 10.0 mi NE 19.6 mph - N/A   Partly Cloudy
5:53 AM 24.1 °F 11.0 °F 5.0 °F 44% 30.22 in 10.0 mi NE 16.1 mph 23.0 mph N/A   Clear
6:53 AM 21.9 °F 13.4 °F 5.0 °F 48% 30.28 in 10.0 mi NNE 6.9 mph - N/A   Clear
7:53 AM 25.0 °F 14.8 °F 5.0 °F 43% 30.32 in 10.0 mi NNE 10.4 mph - N/A   Clear
8:53 AM 28.9 °F 20.4 °F 6.1 °F 38% 30.36 in 10.0 mi NNE 9.2 mph - N/A   Clear
9:53 AM 30.9 °F 21.2 °F 6.1 °F 35% 30.37 in 10.0 mi ENE 12.7 mph - N/A   Clear
10:53 AM 32.0 °F 24.2 °F 3.9 °F 31% 30.38 in 10.0 mi East 9.2 mph - N/A   Clear
11:53 AM 32.0 °F 27.5 °F 3.0 °F 29% 30.37 in 10.0 mi Variable 4.6 mph - N/A   Clear
12:53 PM 35.6 °F 29.9 °F 1.4 °F 24% 30.28 in 10.0 mi Variable 6.9 mph - N/A   Clear
1:53 PM 36.0 °F 30.3 °F 1.9 °F 24% 30.32 in 10.0 mi East 6.9 mph - N/A   Clear
2:53 PM 35.6 °F 32.8 °F 1.4 °F 24% 30.27 in 10.0 mi Variable 3.5 mph - N/A   Clear
3:53 PM 35.1 °F 32.2 °F 1.0 °F 24% 30.34 in 10.0 mi Variable 3.5 mph - N/A   Clear
4:53 PM 34.0 °F 31.0 °F 1.0 °F 25% 30.35 in 10.0 mi SW 3.5 mph - N/A   Clear
5:53 PM 28.9 °F 22.8 °F 1.0 °F 30% 30.39 in 10.0 mi WNW 5.8 mph - N/A   Clear
6:53 PM 25.0 °F - -0.0 °F 34% 30.41 in 10.0 mi Calm Calm - N/A   Clear
7:53 PM 21.0 °F 16.2 °F -0.9 °F 38% 30.43 in 10.0 mi West 3.5 mph - N/A   Clear
8:53 PM 21.0 °F - -0.0 °F 40% 30.43 in 10.0 mi Calm Calm - N/A   Clear
9:53 PM 19.9 °F - 3.0 °F 48% 30.44 in 10.0 mi Calm Calm - N/A   Clear
10:53 PM 19.9 °F 14.9 °F 3.0 °F 48% 30.45 in 10.0 mi SW 3.5 mph - N/A   Clear
11:53 PM 19.0 °F - 1.9 °F 47% 30.45 in 10.0 mi Calm Calm - N/A   Clear